COSMOS 2460 (732)

Last updated on July 6, 2021, 3:39 p.m. UTC

1 36402U 10007C   21186.61570338 -.00000050  00000-0  00000-0 0  9990
2 36402  65.9402  15.0245 0002480  84.0805 297.0379  2.13106470 88309
UTC
Height (km)
Latitude
Longitude
Inclination
Orbital Period
UTC large
Height (km)
Speed (km/s)
/
Latitude / Longitude
Inclination (degrees)
Orbital Period (minutes)
Azimuth
Elevation
Range (km)
Doppler Factor
iOS Compass Heading
iOS Angle